When you browse on this site, cookies collect data to enhance your experience and personalize the content and advertising you see.
Visit our Privacy Policy to learn more. By continuing to use the site, you agree to this use of cookies and data.
  • In Austria
  • List of Countries
  • For 7 days
  • Water Temperature
  • Weather Map
  • News
  • Weather Widgets
  • user-avatar
    Login

    Hourly Weather Rouffach

    Today, 15 December, Sunday

    Time Temperature Precipitation Wind Pressure Humidity
    00:00 +9°C° 0 mm 2 mps 734 mmHg 95%
    01:00 +10°C° 0.3 mm 4 mps 734 mmHg 91%
    02:00 +9°C° 0.3 mm 5 mps 734 mmHg 87%
    03:00 +10°C° 0.3 mm 7 mps 734 mmHg 83%
    04:00 +10°C° 0.1 mm 7 mps 734 mmHg 82%
    05:00 +10°C° 0.1 mm 7 mps 734 mmHg 81%
    06:00 +10°C° 0 mm 5 mps 734 mmHg 81%
    07:00 +10°C° 0.2 mm 6 mps 735 mmHg 81%
    08:00 +10°C° 0.2 mm 6 mps 735 mmHg 82%
    09:00 +10°C° 0.2 mm 6 mps 735 mmHg 82%
    10:00 +10°C° 0.1 mm 6 mps 735 mmHg 81%
    11:00 +10°C° 0.1 mm 6 mps 736 mmHg 81%
    12:00 +10°C° 0 mm 5 mps 736 mmHg 86%
    13:00 +11°C° 0.7 mm 4 mps 736 mmHg 88%
    14:00 +11°C° 0.7 mm 4 mps 737 mmHg 89%
    15:00 +10°C° 0.7 mm 4 mps 737 mmHg 91%
    16:00 +10°C° 0.4 mm 3 mps 737 mmHg 92%
    17:00 +10°C° 0.4 mm 3 mps 738 mmHg 92%
    18:00 +10°C° 0.4 mm 2 mps 738 mmHg 93%
    19:00 +9°C° 0 mm 2 mps 738 mmHg 93%
    20:00 +9°C° 0 mm 2 mps 738 mmHg 93%
    21:00 +10°C° 0 mm 1 mps 738 mmHg 93%
    22:00 +10°C° 0 mm 1 mps 738 mmHg 93%
    23:00 +8°C° 0 mm 2 mps 738 mmHg 92%

    Tomorrow, 16 December, Monday

    Time Temperature Precipitation Wind Pressure Humidity
    00:00 +8°C° 0 mm 2 mps 738 mmHg 91%
    01:00 +8°C° 0 mm 2 mps 738 mmHg 91%
    02:00 +8°C° 0 mm 2 mps 738 mmHg 90%
    03:00 +8°C° 0 mm 2 mps 738 mmHg 90%
    04:00 +8°C° 0 mm 2 mps 738 mmHg 89%
    05:00 +8°C° 0 mm 2 mps 737 mmHg 89%
    06:00 +7°C° 0 mm 2 mps 737 mmHg 89%
    07:00 +9°C° 0 mm 1 mps 737 mmHg 87%
    08:00 +9°C° 0 mm 1 mps 737 mmHg 86%
    09:00 +10°C° 0 mm 1 mps 737 mmHg 84%
    10:00 +10°C° 0 mm 1 mps 737 mmHg 81%
    11:00 +11°C° 0 mm 1 mps 736 mmHg 78%
    12:00 +12°C° 0 mm 1 mps 736 mmHg 75%
    13:00 +11°C° 0 mm 1 mps 736 mmHg 77%
    14:00 +11°C° 0 mm 1 mps 736 mmHg 78%
    15:00 +10°C° 0 mm 1 mps 736 mmHg 80%
    16:00 +9°C° 0 mm 1 mps 735 mmHg 79%
    17:00 +9°C° 0 mm 1 mps 735 mmHg 79%
    18:00 +8°C° 0 mm 1 mps 735 mmHg 79%
    19:00 +8°C° 0 mm 1 mps 735 mmHg 78%
    20:00 +8°C° 0 mm 1 mps 735 mmHg 78%
    21:00 +9°C° 0 mm 1 mps 735 mmHg 78%
    22:00 +8°C° 0 mm 1 mps 735 mmHg 79%
    23:00 +8°C° 0 mm 1 mps 734 mmHg 80%

    Day after tomorrow, 17 December, Tuesday

    Time Temperature Precipitation Wind Pressure Humidity
    00:00 +8°C° 0 mm 1 mps 734 mmHg 80%
    01:00 +8°C° 0 mm 1 mps 734 mmHg 80%
    02:00 +8°C° 0 mm 1 mps 734 mmHg 79%
    03:00 +8°C° 0 mm 1 mps 734 mmHg 79%
    04:00 +8°C° 0 mm 1 mps 734 mmHg 79%
    05:00 +8°C° 0 mm 1 mps 734 mmHg 80%
    06:00 +8°C° 0 mm 1 mps 734 mmHg 80%
    07:00 +9°C° 0 mm 1 mps 735 mmHg 79%
    08:00 +9°C° 0 mm 1 mps 735 mmHg 78%
    09:00 +10°C° 0 mm 1 mps 735 mmHg 77%
    10:00 +11°C° 0 mm 1 mps 735 mmHg 76%
    11:00 +11°C° 0 mm 1 mps 735 mmHg 75%
    12:00 +12°C° 0 mm 1 mps 735 mmHg 73%
    13:00 +12°C° 0 mm 1 mps 735 mmHg 75%
    14:00 +11°C° 0 mm 1 mps 735 mmHg 77%
    15:00 +11°C° 0 mm 1 mps 735 mmHg 78%
    16:00 +10°C° 0 mm 1 mps 735 mmHg 79%
    17:00 +10°C° 0 mm 1 mps 735 mmHg 80%
    18:00 +9°C° 0 mm 1 mps 735 mmHg 81%
    19:00 +9°C° 0 mm 1 mps 736 mmHg 80%
    20:00 +9°C° 0 mm 1 mps 736 mmHg 79%
    21:00 +9°C° 0 mm 1 mps 737 mmHg 78%
    22:00 +9°C° 0 mm 1 mps 737 mmHg 78%
    23:00 +9°C° 0 mm 1 mps 737 mmHg 78%

    18 December, Wednesday

    Time Temperature Precipitation Wind Pressure Humidity
    00:00 +10°C° 0 mm 1 mps 737 mmHg 78%
    01:00 +10°C° 0 mm 1 mps 737 mmHg 80%
    02:00 +9°C° 0 mm 1 mps 737 mmHg 81%
    03:00 +9°C° 0 mm 1 mps 737 mmHg 83%
    04:00 +9°C° 0 mm 1 mps 737 mmHg 84%
    05:00 +8°C° 0 mm 0 mps 737 mmHg 85%
    06:00 +8°C° 0 mm 0 mps 737 mmHg 86%
    07:00 +8°C° 0 mm 0 mps 738 mmHg 85%
    08:00 +9°C° 0 mm 0 mps 738 mmHg 84%
    09:00 +9°C° 0 mm 0 mps 738 mmHg 82%
    10:00 +10°C° 0 mm 0 mps 738 mmHg 80%
    11:00 +11°C° 0 mm 0 mps 738 mmHg 77%
    12:00 +12°C° 0 mm 1 mps 738 mmHg 75%
    13:00 +11°C° 0 mm 0 mps 737 mmHg 78%
    14:00 +10°C° 0 mm 0 mps 737 mmHg 81%
    15:00 +9°C° 0 mm 0 mps 737 mmHg 84%
    16:00 +9°C° 0 mm 0 mps 737 mmHg 85%
    17:00 +8°C° 0 mm 0 mps 737 mmHg 87%
    18:00 +7°C° 0 mm 0 mps 736 mmHg 88%
    19:00 +7°C° 0 mm 0 mps 736 mmHg 88%
    20:00 +7°C° 0 mm 0 mps 737 mmHg 87%
    21:00 +7°C° 0 mm 0 mps 737 mmHg 87%
    22:00 +8°C° 0 mm 1 mps 736 mmHg 88%
    23:00 +8°C° 0 mm 1 mps 736 mmHg 88%

    19 December, Thursday

    Time Temperature Precipitation Wind Pressure Humidity
    00:00 +8°C° 0 mm 1 mps 736 mmHg 88%
    01:00 +8°C° 0 mm 1 mps 736 mmHg 88%
    02:00 +7°C° 0 mm 1 mps 736 mmHg 87%
    03:00 +7°C° 0 mm 1 mps 736 mmHg 87%
    04:00 +7°C° 0 mm 1 mps 735 mmHg 86%
    05:00 +7°C° 0 mm 1 mps 735 mmHg 85%
    06:00 +7°C° 0 mm 1 mps 735 mmHg 84%
    07:00 +8°C° 0 mm 1 mps 735 mmHg 82%
    08:00 +9°C° 0 mm 1 mps 735 mmHg 80%
    09:00 +9°C° 0 mm 1 mps 734 mmHg 79%
    10:00 +10°C° 0 mm 1 mps 734 mmHg 75%
    11:00 +11°C° 0 mm 1 mps 734 mmHg 72%
    12:00 +12°C° 0 mm 1 mps 733 mmHg 69%
    13:00 +11°C° 0.1 mm 1 mps 733 mmHg 73%
    14:00 +11°C° 0.1 mm 1 mps 733 mmHg 77%
    15:00 +10°C° 0.1 mm 1 mps 733 mmHg 81%
    16:00 +10°C° 0.4 mm 1 mps 732 mmHg 83%
    17:00 +9°C° 0.4 mm 2 mps 732 mmHg 85%
    18:00 +8°C° 0.4 mm 2 mps 732 mmHg 87%
    19:00 +8°C° 0.6 mm 2 mps 732 mmHg 88%
    20:00 +9°C° 0.6 mm 1 mps 732 mmHg 89%
    21:00 +9°C° 0.6 mm 1 mps 732 mmHg 90%
    22:00 +9°C° 0.2 mm 1 mps 732 mmHg 91%
    23:00 +9°C° 0.2 mm 1 mps 732 mmHg 92%

    20 December, Friday

    Time Temperature Precipitation Wind Pressure Humidity
    00:00 +9°C° 0.2 mm 1 mps 732 mmHg 93%
    01:00 +9°C° 0 mm 1 mps 732 mmHg 93%
    02:00 +8°C° 0 mm 1 mps 731 mmHg 93%
    03:00 +8°C° 0 mm 1 mps 731 mmHg 93%
    04:00 +7°C° 0 mm 1 mps 730 mmHg 93%
    05:00 +7°C° 0 mm 1 mps 730 mmHg 93%
    06:00 +6°C° 0 mm 0 mps 729 mmHg 93%
    07:00 +7°C° 0 mm 1 mps 728 mmHg 93%
    08:00 +8°C° 0 mm 1 mps 727 mmHg 92%
    09:00 +8°C° 0 mm 1 mps 726 mmHg 91%
    10:00 +7°C° 0.2 mm 2 mps 725 mmHg 91%
    11:00 +8°C° 0.2 mm 2 mps 724 mmHg 90%
    12:00 +8°C° 0.2 mm 2 mps 723 mmHg 90%
    13:00 +8°C° 0.5 mm 2 mps 722 mmHg 91%
    14:00 +9°C° 0.5 mm 1 mps 721 mmHg 92%
    15:00 +8°C° 0.5 mm 1 mps 721 mmHg 94%
    16:00 +8°C° 0.7 mm 1 mps 721 mmHg 94%
    17:00 +8°C° 0.7 mm 1 mps 721 mmHg 95%
    18:00 +8°C° 0.7 mm 1 mps 721 mmHg 96%
    19:00 +8°C° 0.2 mm 1 mps 722 mmHg 96%
    20:00 +7°C° 0.2 mm 2 mps 722 mmHg 95%
    21:00 +7°C° 0.2 mm 2 mps 722 mmHg 94%
    22:00 +7°C° 0.2 mm 3 mps 723 mmHg 92%
    23:00 +6°C° 0.2 mm 4 mps 723 mmHg 90%
    Show more